www.pogodaiklimat.ru

Погода и климат >> Архив погоды >> Пакистан >> Исламабад Сити


ПОГОДА в Исламабад Сити

  • Прогноз погоды в Исламабад Сити
  • Монитор погоды в Исламабад Сити

АРХИВ ПОГОДЫ в Исламабад Сити

Время (UTC), дата Ветер
(напр.,м/с)
 
Видим.   Явления Облачность Т
(С)
Тd
(С)
f
(%)
Тe
(С)
Тes
(С)
Комфортность P
(гПа)
Po
(гПа)
Тmin
(С)
Tmax
(С)
R
(мм)
R24
(мм)
S
(см)
18 15.09 0 н/о
21 15.09 штиль 0 4000 м дым 4/4 1200 м
[Sc]
+25.0 +22.9 88 +33 +33 очень
душно
1004.5 945.8
00 16.09 штиль 0 4000 м дым {гроза, дождь} 10/5 1200 м
[Sc Ac As]
+19.5 +18.7 95 +22 +22 комфорт 1006.2 945.7 32
06 16.09 штиль 0 4000 м дым {морось} 6/4 900 м
[Sc diur, vesp Ac As]
+28.0 +19.9 61 +34 +43 очень
душно
1005.4 947.2
09 16.09 В 2 4000 м дым ясно +31.0 +21.0 55 +38 +50 очень
душно
1002.6 945.2
12 16.09 штиль 0 4000 м дым ясно +30.5 +22.8 64 +40 +42 очень
душно
1001.1 943.0 +32.0
15 16.09 штиль 0 4000 м дым ясно +25.5 +22.7 85 +34 +34 очень
душно
1003.0 944.5
18 16.09 штиль 0 4000 м дым ясно +24.0 +0.6 21 +23 +23 комфорт 1003.8 945.0
21 16.09 штиль 0 4000 м дым 5/5 1200 м
[Sc]
+22.0 +21.5 97 +29 +29 очень
душно
1003.8 944.6
00 17.09 штиль 0 4000 м гроза, ливневой дождь 10/3 750 м
[Cb cap As op]
+22.0 +21.3 96 +29 +29 очень
душно
1004.0 944.1 0.0
03 17.09 штиль 0 4000 м дым 5/3 1200 м
[Sc Ac As]
+24.0 +21.8 88 +31 +33 очень
душно
1006.7 947.1 +18.0
06 17.09 штиль 0 4000 м дым {гроза} ясно +30.5 +22.8 64 +40 +60 опасность
солнечного
удара
1006.4 948.7
09 17.09 штиль 0 4000 м дым 3/1 900 м
[Sc diur, vesp Ac trans]
+32.0 +22.1 56 +41 +54 опасность
перегрева
1003.2 945.9
12 17.09 штиль 0 4000 м дым 4/3 1050 м
[Sc diur, vesp Ac As]
+32.0 +24.5 65 +45 +46 опасность
перегрева
1002.3 944.4 +33.5
15 17.09 штиль 0 4000 м дым 3/0
[Ac trans]
+26.0 +23.2 85 +35 +35 очень
душно
1004.8 946.3
18 17.09 штиль 0 4000 м дым ясно +24.5 +23.1 92 +33 +33 очень
душно
1006.4 946.9
00 18.09 штиль 0 4000 м дым ясно +22.0 +21.3 96 +29 +29 очень
душно
1007.0 948.4
03 18.09 штиль 0 4000 м дым 3/0
[Ac trans]
+25.5 +21.9 81 +33 +37 очень
душно
1008.7 949.2 +18.0
06 18.09 штиль 0 4000 м дым ясно +30.0 +21.4 60 +38 +57 опасность
солнечного
удара
1010.4 952.3
09 18.09 штиль 0 4000 м дым ясно +32.0 +21.3 53 +40 +56 опасность
солнечного
удара
1007.3 949.8
12 18.09 штиль 0 4000 м дым 3/0
[Ac trans]
+32.0 +23.7 62 +43 +45 опасность
перегрева
1006.1 947.9 +33.7
15 18.09 штиль 0 4000 м дым ясно +27.0 +24.9 88 +39 +39 очень
душно
1007.9 948.9
18 18.09 штиль 0 4000 м дым 3/0
[Ac trans]
+25.0 +23.6 92 +34 +34 очень
душно
1009.5 949.9
21 18.09 штиль 0 4000 м дым 3/0
[Ac trans]
+24.5 +22.4 88 +32 +32 очень
душно
1009.4 950.4
00 19.09 штиль 0 4000 м дым 6/3 1200 м
[Cu med, cong Ac As]
+25.5 +23.4 88 +34 +34 очень
душно
1009.7 951.0
03 19.09 В 1 4000 м дым 8/4 1200 м
[Sc Ac trans Ci sp]
+25.0 +24.3 96 +35 +36 очень
душно
1010.6 951.0 +17.5 0.0
06 19.09 В 2 4000 м дым {морось} 6/4 900 м
[Sc diur, vesp Ac As]
+27.0 +22.0 74 +35 +41 очень
душно
1012.7 953.9 0.0
09 19.09 В 2 4000 м дым 6/4 900 м
[Sc diur, vesp Ac As]
+29.5 +23.2 69 +40 +45 очень
душно
1010.3 952.1
12 19.09 В 1 4000 м дым 4/3 900 м
[Sc diur, vesp Ac As]
+29.0 +23.4 72 +39 +40 очень
душно
1009.1 950.2 +29.8
15 19.09 штиль 0 4000 м дым 4/1 1200 м
[Sc Ac trans]
+26.5 +23.0 81 +35 +35 очень
душно
1010.2 951.5
18 19.09 штиль 0 4000 м дым ясно +24.0 +22.6 92 +31 +31 очень
душно
1011.2 952.0
21 19.09 штиль 0 4000 м дымка 9/3 1200 м
[Sc Ac trans]
+24.0 +22.6 92 +31 +31 очень
душно
1010.9 951.7
00 20.09 штиль 0 4000 м гроза, ливневой дождь 10/3 750 м
[Cb cap As op]
+22.0 +20.5 91 +28 +28 душно 1011.4 951.2 3
03 20.09 СВ 1 4000 м дым {гроза, дождь} 9/3 1200 м
[Sc As trans]
+22.5 +18.7 79 +28 +29 душно 1012.6 952.2 +17.0 0.0
06 20.09 штиль 0 4000 м дым 9/4 1200 м
[Sc Ac As]
+25.5 +19.6 70 +31 +36 очень
душно
1014.5 955.3
09 20.09 штиль 0 4000 м дым 3/0 1000 м
[Ac As]
+28.5 +18.9 56 +34 +46 очень
душно
1010.1 951.8
12 20.09 штиль 0 10 км 3/3 1200 м
[Sc]
+29.0 +21.1 62 +36 +37 очень
душно
1008.5 949.5 +30.0
15 20.09 штиль 0 4000 м дым ясно +23.5 +20.6 84 +29 +29 душно 1009.8 950.5
18 20.09 штиль 0 4000 м дым ясно +22.0 +20.5 91 +28 +28 душно 1010.1 950.5
00 21.09 штиль 0 4000 м дым ясно +20.0 +19.2 95 +23 +23 комфорт 1010.2 949.5
03 21.09 штиль 0 4000 м дым ясно +23.5 +19.8 80 +29 +33 душно 1010.8 950.8 +19.5
06 21.09 штиль 0 4000 м дым ясно +28.5 +19.7 59 +34 +53 опасность
солнечного
удара
1010.0 951.7
09 21.09 штиль 0 4000 м мгла 1/1 1200 м
[Sc]
+31.5 +19.0 47 +37 +51 опасность
солнечного
удара
1007.9 950.3
12 21.09 штиль 0 4000 м дым ясно +30.0 +21.4 60 +38 +39 очень
душно
1005.5 946.9 +31.5
18 21.09 штиль 0 10 км ясно +23.5 +20.6 84 +29 +29 душно 1007.8 948.0
21 21.09 штиль 0 10 км ясно +21.5 +20.8 96 +27 +27 душно 1008.8 949.2
03 22.09 штиль 0 10 км ясно +24.0 +20.3 80 +30 +34 очень
душно
1010.8 950.9 +17.0
06 22.09 штиль 0 4000 м дым ясно +30.5 +20.4 55 +37 +56 опасность
солнечного
удара
1011.5 953.5
09 22.09 СЗ 1 4000 м мгла 1/1 1200 м
[Sc]
+32.5 +20.2 48 +39 +51 опасность
солнечного
удара
1007.3 949.9
12 22.09 штиль 0 4000 м ясно +32.0 +22.9 59 +42 +44 опасность
перегрева
1005.6 947.5 +34.0

 

Местоположение метеостанции Исламабад Сити (Пакистан): широта 33.72 долгота 73.10 высота над уровнем моря 525 м.

В архиве по умолчанию представлена погода в Исламабад Сити за последнюю неделю. Архивные данные за месяц целиком и за предыдущие месяцы, начиная с января 2011 года, Вы можете получить, выбрав интересующий диапазон дат из раскрывающегося списка и нажав кнопку "Ввод!".


*Определитесь, кто Вы:
робот инопланетянин человек

Внимание! Время в таблицах - всемирное. Для получения местного времени необходимо прибавить поправку, которая равна 5 ч.

Смотрите также архив погоды в соседних городах и на ближайших метеорологических станциях:

Погода в Исламабаде (Пакистан) (11 км)
Погода в Мерри (Пакистан) (34 км)
Погода в Какуле (Пакистан) (53 км)
Погода в Равалакоте (Пакистан) (66 км)
Погода в Балакоре (Пакистан) (77 км)
Погода в Мангле (Пакистан) (87 км)
Погода в Чаквале (Пакистан) (92 км)
Погода в Джеламе (Пакистан) (105 км)
Погода в Рисалпуре (Пакистан) (112 км)
Погода в Черате (Пакистан) (113 км)

Пояснения к столбцам:

Ветер - указаны скорость ветра в м/с - средняя за 10 мин, порывы в срок и между сроками (в фигурных скобках) и направление, откуда дует ветер: С - северный, СВ - северо-восточный, В - восточный, ЮВ - юго-восточный, Ю - южный, ЮЗ - юго-западный, З - западный, СЗ - северо-западный.
Видимость - горизонтальная дальность видимости в метрах или километрах. При видимости от 1 до 10 км при отсутствии осадков обычно наблюдается дымка, при ухудшении видимости до 1 км и менее - туман. В сухую погоду видимость может ухудшаться дымом, пылью или мглою.
Явления - указаны атмосферные явления, наблюдавшиеся в срок или в последний час перед сроком; фигурными скобками обозначены явления, наблюдавшиеся между сроками (за 1-3 часа до срока); квадратными скобками обозначены град или гололедные отложения с указанием их диаметра в мм.
Облачность - указаны через наклонную черту общая и нижняя облачность в баллах и высота нижней границы облаков в метрах; квадратными скобками обозначены формы облаков: Ci - перистые, Cs - перисто-слоистые, Cc - перисто-кучевые, Ac - высококучевые, As - высокослоистые, Sc - слоисто-кучевые, Ns - слоисто-дождевые, Cu - кучевые, Cb - кучево-дождевые. Подробнее классификацию облаков см. в Атласе облаков (PDF).
T - Температура воздуха - температура, измеренная на высоте 2 м над землей.
Td - Температура точки росы - температура, при понижении до которой содержащийся в воздухе водяной пар достигнет насыщения.
f - Относительная влажность воздуха - влажноcть воздуха, измеренная на высоте 2 м над землей.
Te - Эффективная температура - температура, которую ощущает одетый по сезону человек в тени. Характеристика душности погоды. При расчете учитывается влияние влажности воздуха и скорости ветра на теплоощущения человека.
Tes - Эффективная температура на солнце - температура, которую ощущает человек, с поправкой на солнечный нагрев. Характеристика знойности погоды. Зависит от высоты солнца над горизонтом, облачности и скорости ветра. Ночью, в пасмурную погоду, а также при ветре 12 м/с и более поправка равна нулю.
P - Атмосферное давление - приведенное к уровню моря атмосферное давление.
Po - Атмосферное давление - измеренное на уровне метеостанции атмосферное давление.
Tmin - Минимальная температура - минимум температуры воздуха на высоте 2 м над землей.
Tmax - Максимальная температура - максимум температуры воздуха на высоте 2 м над землей.
R - Количество осадков - Количество выпавших осадков за период времени, мм. При наведении курсора мыши на число - период времени, за который выпало указанное количество осадков.
R24 - Количество осадков - Количество выпавших осадков за 24 часа, мм.
S - Снежный покров - Высота снежного покрова, см. При наведении курсора мыши на число - состояние снежного покрова и степень покрытия местности в баллах.